sat.trackr.live / text

‹ back to catalog

STARLINK-35450

NORAD 65868 · 2025-223Q

PAYLOAD ACTIVE UNKNOWN

§ Identity

Operator
Country
US
Launch date
2025-10-03
Launch site
AFWTR
Launch vehicle
Mass (kg)
RCS (m²)

Purposes: comms

External: N2YO · Heavens-Above · Gunter

§ Orbital elements

Epoch: 2026-05-24T19:28:52.098240Z

Period
93.85 min
Inclination
53.1603°
Eccentricity
0.0000981
Mean motion
15.34399875 rev/d
Perigee alt
462.0 km
Apogee alt
463.4 km
Semi-major
6,840.8 km
B*
6.7059e-4
RAAN
300.3618°
Arg perigee
62.6306°
Mean anomaly
297.4797°
Rev number
3,586

§ Raw data

STARLINK-354501 65868U 25223Q   26144.81171410  .00022348  00000+0  67059-3 0  99952 65868  53.1603 300.3618 0000981  62.6306 297.4797 15.34399875 35866

JSON: /api/v1/satellites/65868 · /tle

For live sub-satellite position, see the globe view (requires WebGL).

§ Visibility from observer

Set your observer location to see the next 7 days of passes ≥ 10°. The values pass through the URL so the page stays shareable.

No JS? Fill the form by hand. The geolocation button needs JavaScript.